Wind_Speed
4 4 3 2 2 2 2 2 3 4 4 4 4 4 5 5 7 7 8 8 9 9 9 11 11 12 13 12 12 13 13 13 13 13 12 12 11 10 10 9 8 8 7
5 4 3 2 2 2 2 2 3 3 3 3 3 4 4 5 5 6 7 7 7 8 8 9 10 11 12 12 12 13 13 13 13 13 14 14 13 12 12 11 11 10 9
6 5 4 3 2 2 2 2 2 3 2 2 2 3 3 5 5 6 6 6 7 6 7 8 8 9 11 12 12 12 12 12 13 13 13 14 15 14 14 13 13 12 11
6 5 4 3 3 2 2 2 2 2 2 2 2 2 3 4 5 6 6 6 7 7 6 7 7 8 9 10 11 11 12 12 13 13 14 14 15 15 15 15 15 15 14
7 5 4 4 3 3 3 2 2 2 1 1 1 1 1 2 3 5 5 6 6 6 6 6 6 7 8 9 10 10 11 11 12 13 14 15 15 16 16 16 16 16 16
8 6 5 4 3 3 3 3 3 2 2 1 1 1 1 1 1 2 3 4 5 5 4 4 5 6 8 9 9 10 10 11 12 13 14 14 15 16 16 16 17 17 17
9 7 5 4 4 4 3 3 3 3 3 2 2 2 2 1 1 1 2 3 3 3 4 4 5 6 7 8 9 9 9 10 11 12 13 14 15 16 17 18 17 18 17
10 8 7 6 5 5 4 4 4 4 3 3 3 2 1 1 1 1 1 2 2 3 4 5 5 6 7 8 9 10 11 10 11 11 12 13 13 14 15 16 18 19 19
10 9 8 8 7 6 6 5 5 5 4 4 4 3 2 1 2 2 2 3 4 4 5 6 6 7 7 8 8 9 10 11 11 11 11 12 13 14 15 15 16 18 18
11 11 10 9 8 8 7 7 6 6 5 5 4 4 4 4 4 3 4 4 4 5 6 7 7 8 8 9 9 10 11 12 12 13 13 13 13 14 15 16 16 17 18
12 12 11 11 10 10 9 9 8 8 7 6 6 6 6 6 6 6 6 6 7 7 8 8 9 10 10 11 12 12 13 13 14 15 15 15 15 15 15 16 16 17 18
13 13 13 12 12 11 11 11 10 10 10 9 9 9 9 9 9 9 10 10 10 10 11 11 12 12 13 14 14 14 15 16 16 16 17 17 17 17 17 17 18 18 19
14 14 14 13 14 14 14 14 13 13 13 13 13 13 12 13 13 13 13 14 14 14 15 15 15 16 16 17 17 18 18 19 19 19 19 20 20 20 20 20 20 20 20
15 15 15 15 15 15 16 16 16 16 16 16 16 16 16 16 17 17 17 18 18 18 19 19 19 20 20 21 21 22 22 22 22 23 23 23 23 23 23 23 23 23 23
16 16 16 17 17 17 17 18 19 19 19 19 20 20 20 20 21 21 21 22 22 23 23 23 24 24 25 25 25 26 26 26 26 26 26 26 26 26 26 27 27 26 26
18 18 18 18 18 19 19 20 21 21 22 22 23 23 24 24 24 25 25 26 26 27 27 28 28 29 29 30 30 30 30 30 31 30 30 30 30 30 30 30 30 30 30
19 19 20 20 20 21 22 22 23 23 24 25 25 25 26 27 27 28 29 30 30 31 31 32 33 33 34 34 34 34 35 35 35 35 35 35 34 34 34 34 34 34 34
20 20 21 21 21 22 24 24 25 25 26 26 27 27 28 29 30 31 32 32 33 34 35 36 37 38 38 38 38 38 39 39 39 39 39 39 39 38 38 38 38 38 38
21 21 22 22 23 23 24 25 25 25 27 27 28 29 30 31 33 34 35 35 36 37 37 38 39 41 41 41 42 42 42 42 41 42 43 43 43 43 43 42 42 43 42
21 21 22 22 23 23 24 25 26 27 28 29 30 32 33 34 36 37 37 38 39 40 41 41 41 43 43 44 44 44 44 44 43 44 45 45 46 47 47 47 47 47 47
21 21 22 22 23 24 25 26 28 29 31 32 33 35 36 38 39 40 41 42 42 42 43 44 44 45 46 47 48 47 47 47 47 47 48 48 49 49 49 49 50 50 51
21 22 23 24 25 26 27 28 30 31 33 35 36 37 38 40 41 43 44 44 45 45 46 47 48 48 49 50 50 50 51 51 50 51 52 51 52 52 51 52 52 52 52
22 23 24 26 28 29 30 31 33 35 36 37 39 40 41 41 42 44 44 45 46 46 48 49 50 51 51 51 51 52 53 53 53 53 55 54 54 54 55 56 55 55 56
23 25 26 28 30 31 33 34 36 37 38 39 41 42 43 43 44 45 46 47 48 49 49 50 51 52 52 52 53 53 54 55 55 55 56 56 56 57 58 59 58 58 59
25 27 29 30 32 34 36 37 38 39 41 41 42 43 44 45 45 46 48 48 49 50 51 52 52 53 53 54 54 55 55 56 56 57 59 59 60 61 61 61 62 63 63
28 30 31 33 35 36 38 39 40 41 42 43 43 44 45 46 47 49 50 50 51 52 53 54 55 56 56 56 57 57 58 58 58 59 60 61 63 65 65 65 66 66 66
Wind_Direction
240 244 250 264 260 257 263 272 276 274 269 264 257 249 239 230 226 229 234 232 231 232 230 226 224 222 220 222 222 224 227 229 231 234 235 236 235 235 237 239 242 245 249
243 244 241 256 255 251 251 257 267 271 270 259 253 248 238 229 224 237 240 234 231 230 230 231 224 224 225 225 226 227 229 231 235 236 238 239 240 239 241 243 245 246 248
236 236 236 243 234 240 245 246 257 263 263 260 257 253 245 238 236 241 238 233 229 231 233 228 224 227 230 232 233 231 231 234 238 240 241 241 242 242 244 246 247 247 248
226 222 228 230 227 230 228 234 250 255 254 252 257 255 242 235 234 235 231 229 228 230 228 228 229 232 235 239 240 240 238 240 242 244 245 245 245 245 246 248 249 249 249
223 219 221 220 217 214 211 219 231 232 231 231 240 265 236 221 226 229 224 220 222 223 225 230 232 234 240 245 247 248 250 248 247 249 250 248 246 246 247 249 251 252 252
221 219 219 218 216 213 207 209 215 210 200 184 169 146 122 149 205 208 208 215 217 223 231 235 236 239 244 249 251 253 256 254 252 253 254 252 250 248 249 251 253 253 253
219 217 218 221 220 213 204 201 201 192 182 172 160 142 119 108 114 171 199 214 225 236 242 251 255 253 251 253 257 261 264 262 257 258 259 256 254 252 252 252 253 253 253
218 221 222 223 218 211 202 193 193 186 181 180 181 176 158 156 169 190 207 227 247 258 262 264 268 267 266 262 262 265 269 269 264 265 265 261 258 257 256 255 254 255 255
219 223 222 219 217 213 206 200 199 192 191 193 199 207 210 220 239 242 252 267 277 282 282 280 279 273 268 270 271 271 273 273 270 270 271 268 265 262 260 259 258 258 258
219 222 222 220 220 218 215 212 213 209 209 209 212 221 231 240 247 252 257 267 277 283 283 284 284 282 279 278 279 279 279 279 278 275 275 274 271 268 266 264 262 261 260
222 224 224 222 223 223 222 221 221 224 226 229 232 237 244 248 251 255 259 267 275 279 282 282 282 282 283 283 282 282 281 280 278 277 275 274 274 273 272 270 268 266 264
223 225 226 226 227 227 228 228 228 232 238 243 246 249 252 254 256 259 262 265 270 274 277 278 279 281 281 281 281 281 280 279 278 277 275 274 273 272 272 271 271 269 267
224 225 227 229 232 234 236 237 237 240 245 249 251 254 257 260 261 262 265 268 270 273 275 276 277 278 278 279 279 279 279 278 277 277 276 275 273 272 271 271 271 270 269
225 226 230 234 237 240 242 243 245 247 251 253 254 257 259 262 264 265 266 269 271 273 274 276 277 278 278 277 277 277 277 277 276 275 275 274 273 273 272 271 270 270 270
227 230 235 240 244 246 248 248 250 253 255 256 258 260 261 263 265 266 267 268 270 272 273 274 275 276 277 276 276 276 275 275 275 274 273 273 272 272 271 270 270 269 269
233 237 242 246 248 251 253 254 255 258 259 260 261 262 263 264 266 266 267 268 269 271 272 273 275 275 276 275 274 274 274 273 273 272 272 272 272 271 271 270 269 268 268
242 245 248 250 253 256 257 258 258 260 261 263 265 267 267 268 268 268 269 269 270 271 273 274 275 275 275 274 274 274 274 273 272 271 270 270 270 270 270 269 269 268 268
247 249 251 254 257 258 259 259 260 263 264 266 267 269 270 270 270 271 272 273 273 273 274 275 275 275 275 275 274 274 274 274 273 271 270 270 270 269 269 269 268 267 267
250 253 256 258 260 262 262 263 265 267 268 269 270 272 272 273 272 272 273 273 274 275 275 275 276 276 275 275 275 275 275 275 274 273 271 270 270 270 269 269 268 268 267
255 256 257 260 261 264 267 267 269 270 271 272 274 275 275 275 275 275 275 275 276 276 277 277 278 277 275 275 275 276 275 274 274 274 273 271 271 270 269 269 269 268 267
258 259 261 262 265 268 269 270 272 273 274 275 276 277 277 277 277 277 277 277 277 278 278 278 278 277 277 276 275 274 274 274 273 273 273 272 272 271 270 270 269 268 268
261 262 265 268 271 273 274 274 275 276 276 277 278 279 279 280 279 278 278 278 278 278 278 279 278 278 278 278 276 275 274 274 274 273 273 273 272 272 272 271 270 270 269
266 268 270 271 274 276 276 277 279 279 279 280 280 280 281 282 281 280 279 280 280 280 280 280 279 279 279 279 278 277 275 274 275 274 273 273 272 271 272 271 271 270 270
273 274 275 276 277 278 278 279 281 282 283 282 282 282 283 283 283 282 282 281 281 280 280 280 280 280 281 280 279 278 278 277 276 276 275 274 272 271 271 270 270 270 271
277 277 278 279 280 280 281 282 282 283 283 283 283 282 282 282 282 281 282 282 282 282 281 281 281 281 281 280 280 280 279 279 278 277 276 275 273 272 272 272 271 271 271
277 278 280 281 282 283 283 283 283 283 283 283 283 283 283 283 283 283 283 283 283 283 283 283 282 282 282 281 281 281 280 280 280 279 278 277 276 274 273 273 273 272 272
Height
5888 5888 5888 5888 5888 5888 5887 5887 5887 5887 5887 5886 5886 5886 5887 5887 5887 5888 5888 5888 5889 5890 5890 5891 5892 5893 5894 5896 5897 5898 5899 5901 5902 5903 5904 5905 5906 5907 5907 5908 5909 5909 5910
5886 5887 5887 5887 5887 5887 5887 5887 5886 5886 5886 5886 5886 5886 5886 5886 5886 5886 5887 5887 5888 5889 5889 5890 5890 5892 5893 5894 5895 5896 5897 5898 5900 5901 5902 5903 5904 5905 5905 5906 5907 5908 5908
5885 5886 5886 5887 5886 5886 5886 5886 5886 5886 5886 5886 5885 5885 5885 5885 5885 5886 5886 5886 5887 5887 5888 5889 5889 5890 5891 5892 5893 5894 5895 5896 5897 5898 5899 5900 5901 5902 5903 5904 5905 5906 5906
5883 5884 5885 5886 5886 5886 5886 5886 5886 5886 5886 5885 5885 5885 5885 5885 5885 5885 5885 5886 5886 5886 5887 5887 5888 5889 5890 5891 5892 5893 5893 5894 5895 5896 5897 5898 5898 5899 5901 5901 5902 5903 5904
5882 5883 5884 5885 5885 5885 5885 5885 5885 5886 5885 5885 5885 5885 5885 5884 5884 5884 5885 5885 5885 5886 5886 5887 5888 5888 5889 5889 5890 5891 5891 5892 5893 5893 5894 5895 5896 5897 5898 5898 5899 5900 5901
5881 5882 5883 5884 5884 5885 5885 5885 5885 5885 5885 5885 5885 5885 5885 5885 5885 5884 5885 5885 5885 5886 5886 5886 5887 5887 5888 5888 5889 5889 5889 5890 5890 5891 5891 5892 5892 5893 5894 5895 5896 5897 5897
5880 5881 5882 5883 5884 5884 5885 5885 5885 5885 5885 5885 5886 5886 5886 5885 5885 5885 5885 5885 5885 5886 5886 5886 5886 5886 5886 5887 5887 5887 5887 5887 5888 5888 5888 5889 5889 5890 5891 5892 5892 5893 5894
5878 5880 5881 5882 5883 5884 5884 5884 5885 5885 5885 5885 5886 5886 5886 5887 5886 5886 5886 5886 5886 5886 5886 5885 5885 5885 5885 5885 5886 5886 5886 5886 5886 5886 5885 5886 5886 5887 5887 5888 5888 5889 5890
5877 5878 5879 5881 5882 5883 5883 5884 5884 5885 5885 5885 5885 5886 5886 5886 5886 5886 5886 5886 5886 5885 5885 5885 5885 5885 5884 5884 5884 5884 5884 5884 5884 5883 5883 5883 5883 5884 5884 5884 5884 5885 5886
5875 5876 5878 5879 5880 5881 5882 5883 5884 5884 5885 5885 5885 5885 5886 5886 5886 5886 5886 5885 5885 5885 5884 5884 5884 5884 5883 5883 5883 5883 5882 5882 5882 5881 5881 5881 5881 5881 5881 5881 5881 5881 5881
5873 5874 5876 5877 5879 5880 5881 5882 5883 5883 5884 5884 5884 5884 5884 5884 5884 5885 5885 5884 5884 5884 5883 5883 5882 5882 5882 5881 5881 5881 5880 5880 5879 5879 5879 5878 5878 5878 5877 5877 5877 5877 5877
5870 5872 5874 5875 5877 5878 5879 5880 5881 5882 5882 5883 5883 5883 5883 5883 5883 5883 5883 5882 5882 5882 5881 5881 5880 5880 5879 5879 5878 5878 5877 5877 5876 5876 5875 5875 5875 5874 5874 5874 5873 5873 5873
5868 5870 5871 5873 5874 5875 5876 5877 5878 5879 5880 5880 5880 5880 5880 5880 5880 5880 5880 5880 5879 5879 5878 5878 5877 5877 5876 5876 5875 5874 5874 5873 5873 5872 5872 5871 5871 5870 5870 5869 5869 5869 5869
5865 5867 5869 5870 5871 5872 5873 5874 5875 5875 5876 5876 5877 5877 5877 5877 5877 5877 5877 5876 5876 5875 5875 5874 5873 5872 5872 5871 5871 5870 5869 5869 5868 5867 5867 5866 5866 5865 5865 5864 5864 5864 5864
5862 5864 5866 5867 5868 5869 5869 5870 5870 5871 5871 5872 5872 5872 5872 5872 5872 5872 5872 5871 5871 5870 5870 5869 5868 5867 5866 5866 5865 5864 5863 5863 5862 5861 5861 5860 5860 5859 5859 5858 5858 5858 5858
5859 5861 5862 5863 5864 5865 5865 5865 5866 5866 5866 5866 5867 5867 5867 5867 5866 5866 5866 5865 5865 5864 5863 5862 5861 5860 5859 5858 5858 5857 5856 5855 5855 5854 5853 5853 5853 5852 5852 5851 5851 5851 5850
5855 5857 5858 5858 5859 5860 5860 5860 5860 5860 5860 5860 5861 5861 5860 5860 5860 5859 5859 5858 5857 5857 5856 5854 5853 5852 5851 5850 5849 5848 5847 5847 5846 5846 5845 5844 5844 5844 5843 5843 5842 5842 5842
5851 5852 5853 5853 5854 5854 5854 5854 5854 5854 5854 5854 5854 5854 5853 5853 5853 5852 5851 5850 5849 5848 5847 5846 5844 5843 5842 5841 5840 5839 5838 5837 5836 5835 5835 5835 5834 5834 5833 5833 5833 5833 5833
5846 5847 5847 5848 5848 5848 5848 5848 5848 5848 5847 5847 5847 5846 5846 5845 5844 5843 5842 5841 5840 5839 5838 5836 5834 5833 5832 5830 5829 5828 5827 5826 5825 5824 5824 5824 5823 5823 5822 5822 5822 5822 5822
5840 5841 5841 5842 5842 5842 5842 5842 5841 5841 5841 5840 5839 5838 5837 5836 5835 5834 5833 5832 5830 5828 5827 5825 5824 5822 5820 5819 5818 5817 5815 5814 5813 5812 5811 5811 5810 5810 5810 5810 5810 5810 5809
5835 5835 5836 5836 5836 5836 5835 5835 5834 5834 5833 5832 5831 5829 5828 5827 5825 5824 5822 5821 5819 5817 5815 5814 5812 5810 5809 5807 5805 5804 5802 5801 5800 5799 5798 5797 5796 5796 5796 5796 5795 5796 5795
5829 5830 5830 5830 5829 5829 5828 5827 5826 5825 5824 5823 5821 5819 5818 5816 5814 5812 5811 5809 5807 5805 5803 5801 5799 5797 5796 5793 5792 5790 5788 5788 5787 5786 5784 5783 5782 5781 5781 5780 5780 5780 5780
5824 5823 5823 5823 5822 5821 5821 5819 5818 5816 5815 5813 5811 5809 5807 5805 5803 5801 5799 5797 5794 5792 5791 5788 5786 5784 5781 5779 5777 5775 5774 5772 5771 5770 5768 5768 5767 5765 5765 5764 5764 5764 5764
5818 5817 5817 5816 5815 5814 5812 5811 5809 5807 5805 5803 5801 5798 5796 5793 5791 5788 5786 5784 5781 5779 5777 5774 5772 5769 5767 5764 5762 5760 5758 5757 5756 5754 5751 5751 5751 5749 5749 5748 5747 5747 5746
5811 5810 5809 5808 5807 5805 5804 5802 5800 5797 5795 5792 5790 5787 5784 5782 5779 5776 5773 5770 5767 5765 5762 5759 5757 5754 5751 5748 5746 5744 5742 5740 5739 5737 5734 5733 5732 5731 5731 5730 5729 5728 5728
5804 5802 5801 5799 5798 5796 5794 5792 5789 5787 5784 5781 5778 5775 5772 5769 5766 5763 5760 5756 5753 5750 5747 5744 5741 5738 5735 5732 5729 5726 5724 5722 5720 5719 5716 5713 5712 5710 5711 5711 5709 5708 5707